Weather History for Du Bois, PA

Change the Weather History Date:

Friday, May 9, 2014

  Actual Average Record
Temperature  
Mean Temperature 72 °F 54 °F  
Max Temperature 83 °F 66 °F 89 °F (1979)
Min Temperature 61 °F 43 °F 26 °F (1966)
Degree Days  
Heating Degree Days 0 11  
Month to date heating degree days 102 107  
Since 1 July heating degree days 6689 6620  
Cooling Degree Days 7 0  
Month to date cooling degree days 9 0  
Year to date cooling degree days 17 4  
Growing Degree Days 22 (Base 50)    
Moisture  
Dew Point 53 °F    
Average Humidity 55    
Maximum Humidity 81    
Minimum Humidity 28    
Precipitation  
Precipitation 0.07 in 0.14 in 1.81 in (2002)
Month to date precipitation 0.51 1.14  
Sea Level Pressure  
Sea Level Pressure 29.94 in    
Wind  
Wind Speed 10 mph (SSW)    
Max Wind Speed 23 mph    
Max Gust Speed 34 mph    
Visibility 10 miles    
Events Rain    
T = Trace of Precipitation, MM = Missing Value Source: NWS Daily Summary

Daily Weather History Graph

Daily Weather History Graph

Search for Another Location

Airport:

Trip Planner

Search our weather history database for the weather conditions in past years. The results will help you decide how hot, cold, wet, or windy it might be!

Date:

Astronomy

May. 09, 2014 Rise Set
Actual Time 6:03 AM EDT 8:21 PM EDT
Civil Twilight 5:32 AM EDT 8:51 PM EDT
Nautical Twilight 4:54 AM EDT 9:30 PM EDT
Astronomical Twilight 4:13 AM EDT 10:12 PM EDT
Moon 3:13 PM EDT (5/9) 3:08 AM EDT (5/9)
Length of Visible Light 15h 19m
Length of Day
14h 17m
Waxing Gibbous, 73% of the Moon is Illuminated
May 9
Waxing Gibbous
May 14
Full
May 21
Last Quarter
May 28
New
Jun 5
First Quarter

Hourly Weather History & Observations

Time (EDT) Temp. Dew Point Humidity Pressure Visibility Wind Dir Wind Speed Gust Speed Precip Events Conditions
1:56 AM 70.0 °F 55.0 °F 59% 30.01 in 10.0 mi SW 8.1 mph - N/A   Partly Cloudy
2:56 AM 68.0 °F 54.0 °F 61% 30.01 in 10.0 mi SW 6.9 mph - N/A   Clear
3:56 AM 64.9 °F 54.0 °F 68% 30.01 in 10.0 mi SW 6.9 mph - N/A   Clear
4:56 AM 64.9 °F 54.0 °F 68% 30.00 in 10.0 mi SW 4.6 mph - N/A   Clear
5:56 AM 61.0 °F 54.0 °F 78% 30.01 in 10.0 mi SE 3.5 mph - N/A   Clear
6:56 AM 62.1 °F 53.1 °F 72% 30.02 in 10.0 mi Calm Calm - N/A   Clear
7:56 AM 66.9 °F 54.0 °F 63% 30.02 in 10.0 mi SW 4.6 mph - N/A   Clear
8:56 AM 73.0 °F 53.1 °F 49% 30.01 in 10.0 mi SW 8.1 mph - N/A   Clear
9:56 AM 75.9 °F 52.0 °F 43% 30.02 in 10.0 mi SW 13.8 mph - N/A   Clear
10:56 AM 78.1 °F 53.1 °F 42% 30.01 in 10.0 mi WSW 13.8 mph 23.0 mph N/A   Clear
11:56 AM 79.0 °F 53.1 °F 40% 29.99 in 10.0 mi SW 13.8 mph 26.5 mph N/A   Partly Cloudy
12:56 PM 79.0 °F 54.0 °F 42% 29.96 in 10.0 mi WSW 19.6 mph 25.3 mph N/A   Mostly Cloudy
1:56 PM 80.1 °F 52.0 °F 38% 29.94 in 10.0 mi SW 15.0 mph 20.7 mph N/A   Mostly Cloudy
2:56 PM 81.0 °F 51.1 °F 35% 29.91 in 10.0 mi SSW 11.5 mph 23.0 mph N/A   Partly Cloudy
3:56 PM 82.0 °F 46.9 °F 29% 29.88 in 10.0 mi SW 19.6 mph 31.1 mph N/A   Clear
4:56 PM 82.0 °F 48.9 °F 31% 29.86 in 10.0 mi SW 16.1 mph 29.9 mph N/A   Clear
5:56 PM 81.0 °F 50.0 °F 34% 29.86 in 10.0 mi SW 17.3 mph 24.2 mph N/A   Clear
6:56 PM 79.0 °F 48.0 °F 34% 29.84 in 10.0 mi SSW 11.5 mph 17.3 mph N/A   Mostly Cloudy
7:56 PM 78.1 °F 48.0 °F 35% 29.85 in 10.0 mi South 6.9 mph - N/A   Overcast
8:56 PM 68.0 °F 57.9 °F 70% 29.87 in 10.0 mi SSE 8.1 mph 19.6 mph 0.03 in   Overcast
9:56 PM 68.0 °F 57.0 °F 68% 29.87 in 9.0 mi South 6.9 mph - 0.01 in Rain Light Rain
10:56 PM 66.0 °F 60.1 °F 81% 29.87 in 8.0 mi South 8.1 mph - 0.02 in Rain Light Rain
11:56 PM 64.0 °F 59.0 °F 84% 29.87 in 10.0 mi SSW 4.6 mph - 0.01 in   Overcast